Regional Weather Roundup
Issued by NWS Spokane, WA

Home | Current Version | Previous Version | Text Only | Print | Product List | Glossary On
Versions: 1 2 3 4 5 6 7 8 9 10 11 12 13 14 15 16 17 18 19 20 21 22 23 24 25 26 27 28 29 30 31 32 33 34 35 36 37 38 39 40 41 42 43 44 45 46 47 48 49 50
000
NZUS01 KOTX 290400
RWROTX
EASTERN WASHINGTON/NORTHERN IDAHO ROUNDUP
NATIONAL WEATHER SERVICE, SPOKANE WA
800 PM PST FRI NOV 28 2014

Note: "fair" indicated few or no clouds below 12,000 feet with no
significant weather and/or obstructions to visibility.

...NORTHEAST WASHINGTON AND NORTHERN IDAHO PANHANDLE...

CITY           SKY/WX    TMP DP  RH WIND       PRES   REMARKS
SPOKANE INTL   LGT RAIN  47  43  86 SW26G38   29.25R
SPOKANE DOWNTO LGT RAIN  49  43  80 SW24G32   29.26S
COEUR D ALENE  CLOUDY    46  43  87 SW28G40   29.24R
DEER PARK      CLOUDY    47  43  86 SW25G33   29.23S

...SOUTHEAST WASHINGTON AND SOUTHERN IDAHO PANHANDLE...

CITY           SKY/WX    TMP DP  RH WIND       PRES   REMARKS
WALLA WALLA    CLOUDY    59  39  47 SW26G35   29.36F
PULLMAN/MOSCOW MOCLDY    51  39  63 SW24G36   29.35F
LOWELL           N/A     42  41  96 CALM      29.46S

...COLUMBIA BASIN...

CITY           SKY/WX    TMP DP  RH WIND       PRES   REMARKS
EPHRATA        CLOUDY    47  39  74 SW5       29.27S
MOSES LAKE     CLOUDY    47  40  76 SW13      29.29R
TRI CITIES     LGT RAIN  56  46  69 SW18G31   29.34R
HERMISTON      CLOUDY    60  39  45 SW26G37   29.38S
PENDLETON      MOCLDY    54  38  54 S16       29.40F

...EAST SLOPES CASCADES...

CITY           SKY/WX    TMP DP  RH WIND       PRES   REMARKS
THE DALLES     CLOUDY    52  46  80 NW7       29.44R
YAKIMA         MOCLDY    48  38  68 NW3       29.33R
ELLENSBURG     CLOUDY    43  34  70 NW14      29.33S
WENATCHEE      PTCLDY    45  34  65 N9        29.28R
OMAK           CLOUDY    28  19  69 N23G30    29.36R WCI  14

...SOUTHERN BRITISH COLUMBIA...

CITY           SKY/WX    TMP DP  RH WIND       PRES   REMARKS
PENTICTON      FLURRIES  23   9  54 N16G24    29.57R WCI  10
CRANBROOK      LGT SNOW  28  27  93 N14G23    29.13R WCI  17

...WESTERN MONTANA...

CITY           SKY/WX    TMP DP  RH WIND       PRES   REMARKS
MISSOULA       CLOUDY    44  35  70 CALM      29.39F

...NEIGHBORING CITIES...

CITY           SKY/WX    TMP DP  RH WIND       PRES   REMARKS
SEATTLE        LGT RAIN  38  36  92 SE7       29.52R



USA.gov is the U.S. government's official web portal to all federal, state and local government web resources and services.